When you browse on this site, cookies collect data to enhance your experience and personalize the content and advertising you see.
Visit our Privacy Policy to learn more. By continuing to use the site, you agree to this use of cookies and data.
  • In Hungary
  • List of Countries
  • For 7 days
  • Water Temperature
  • Weather Map
  • News
  • Weather Widgets
  • user-avatar
    Login

    Hourly Weather Svetlozelenoe

    Today, 18 January, Saturday

    Time Temperature Precipitation Wind Pressure Humidity
    00:00 -8°C° 0.2 mm 5 mps 741 mmHg 92%
    01:00 -11°C° 0.2 mm 6 mps 742 mmHg 89%
    02:00 -15°C° 0.2 mm 6 mps 743 mmHg 87%
    03:00 -16°C° 0 mm 6 mps 745 mmHg 87%
    04:00 -18°C° 0 mm 5 mps 747 mmHg 88%
    05:00 -20°C° 0 mm 5 mps 749 mmHg 87%
    06:00 -21°C° 0 mm 5 mps 750 mmHg 88%
    07:00 -23°C° 0 mm 4 mps 752 mmHg 88%
    08:00 -24°C° 0 mm 3 mps 754 mmHg 88%
    09:00 -23°C° 0 mm 3 mps 755 mmHg 87%
    10:00 -22°C° 0 mm 3 mps 755 mmHg 86%
    11:00 -22°C° 0 mm 3 mps 757 mmHg 84%
    12:00 -21°C° 0 mm 3 mps 757 mmHg 83%
    13:00 -20°C° 0 mm 4 mps 757 mmHg 82%
    14:00 -19°C° 0 mm 4 mps 758 mmHg 81%
    15:00 -19°C° 0 mm 4 mps 758 mmHg 83%
    16:00 -20°C° 0 mm 4 mps 758 mmHg 84%
    17:00 -20°C° 0 mm 4 mps 759 mmHg 87%
    18:00 -20°C° 0 mm 4 mps 758 mmHg 86%
    19:00 -20°C° 0 mm 4 mps 758 mmHg 85%
    20:00 -20°C° 0 mm 4 mps 757 mmHg 84%
    21:00 -22°C° 0 mm 4 mps 757 mmHg 83%
    22:00 -22°C° 0 mm 4 mps 756 mmHg 81%
    23:00 -22°C° 0 mm 4 mps 756 mmHg 79%

    Tomorrow, 19 January, Sunday

    Time Temperature Precipitation Wind Pressure Humidity
    00:00 -23°C° 0 mm 4 mps 754 mmHg 80%
    01:00 -23°C° 0 mm 4 mps 753 mmHg 80%
    02:00 -23°C° 0 mm 4 mps 751 mmHg 81%
    03:00 -23°C° 0 mm 4 mps 750 mmHg 85%
    04:00 -23°C° 0 mm 4 mps 749 mmHg 88%
    05:00 -23°C° 0 mm 4 mps 748 mmHg 92%
    06:00 -21°C° 0.4 mm 3 mps 747 mmHg 93%
    07:00 -18°C° 0.4 mm 3 mps 746 mmHg 93%
    08:00 -17°C° 0.4 mm 3 mps 745 mmHg 94%
    09:00 -17°C° 0.1 mm 3 mps 745 mmHg 92%
    10:00 -16°C° 0.1 mm 3 mps 745 mmHg 91%
    11:00 -16°C° 0.1 mm 3 mps 745 mmHg 89%
    12:00 -16°C° 0 mm 3 mps 746 mmHg 89%
    13:00 -17°C° 0 mm 3 mps 746 mmHg 89%
    14:00 -17°C° 0 mm 3 mps 747 mmHg 89%
    15:00 -18°C° 0 mm 3 mps 748 mmHg 91%
    16:00 -18°C° 0 mm 3 mps 748 mmHg 92%
    17:00 -19°C° 0 mm 3 mps 749 mmHg 94%
    18:00 -19°C° 0 mm 3 mps 750 mmHg 94%
    19:00 -19°C° 0 mm 3 mps 750 mmHg 94%
    20:00 -21°C° 0 mm 3 mps 751 mmHg 94%
    21:00 -22°C° 0 mm 3 mps 751 mmHg 94%
    22:00 -23°C° 0 mm 3 mps 752 mmHg 95%
    23:00 -24°C° 0 mm 3 mps 753 mmHg 95%

    Day after tomorrow, 20 January, Monday

    Time Temperature Precipitation Wind Pressure Humidity
    00:00 -24°C° 0 mm 2 mps 753 mmHg 96%
    01:00 -26°C° 0 mm 2 mps 754 mmHg 96%
    02:00 -27°C° 0 mm 2 mps 754 mmHg 97%
    03:00 -28°C° 0 mm 2 mps 755 mmHg 97%
    04:00 -28°C° 0 mm 2 mps 756 mmHg 97%
    05:00 -29°C° 0 mm 2 mps 756 mmHg 97%
    06:00 -30°C° 0 mm 2 mps 756 mmHg 96%
    07:00 -30°C° 0 mm 2 mps 756 mmHg 95%
    08:00 -30°C° 0 mm 2 mps 756 mmHg 94%
    09:00 -31°C° 0 mm 3 mps 756 mmHg 92%
    10:00 -29°C° 0 mm 3 mps 756 mmHg 90%
    11:00 -27°C° 0 mm 3 mps 757 mmHg 88%
    12:00 -26°C° 0 mm 3 mps 756 mmHg 88%
    13:00 -25°C° 0 mm 3 mps 756 mmHg 89%
    14:00 -25°C° 0 mm 3 mps 756 mmHg 90%
    15:00 -25°C° 0 mm 3 mps 756 mmHg 91%
    16:00 -26°C° 0 mm 3 mps 756 mmHg 92%
    17:00 -26°C° 0 mm 3 mps 756 mmHg 92%
    18:00 -27°C° 0 mm 3 mps 756 mmHg 92%
    19:00 -29°C° 0 mm 4 mps 755 mmHg 92%
    20:00 -29°C° 0 mm 4 mps 755 mmHg 92%
    21:00 -29°C° 0 mm 4 mps 755 mmHg 91%
    22:00 -27°C° 0 mm 4 mps 755 mmHg 89%
    23:00 -28°C° 0 mm 5 mps 754 mmHg 88%

    21 January, Tuesday

    Time Temperature Precipitation Wind Pressure Humidity
    00:00 -28°C° 0 mm 5 mps 754 mmHg 87%
    01:00 -27°C° 0 mm 4 mps 754 mmHg 86%
    02:00 -27°C° 0 mm 4 mps 753 mmHg 85%
    03:00 -27°C° 0 mm 4 mps 753 mmHg 86%
    04:00 -27°C° 0 mm 4 mps 753 mmHg 86%
    05:00 -27°C° 0 mm 4 mps 753 mmHg 87%
    06:00 -27°C° 0 mm 4 mps 753 mmHg 89%
    07:00 -26°C° 0 mm 3 mps 753 mmHg 90%
    08:00 -26°C° 0 mm 3 mps 753 mmHg 92%
    09:00 -26°C° 0 mm 3 mps 753 mmHg 93%
    10:00 -24°C° 0 mm 2 mps 753 mmHg 93%
    11:00 -24°C° 0 mm 2 mps 753 mmHg 93%
    12:00 -23°C° 0 mm 2 mps 754 mmHg 94%
    13:00 -23°C° 0 mm 2 mps 754 mmHg 94%
    14:00 -23°C° 0 mm 2 mps 754 mmHg 94%
    15:00 -21°C° 0 mm 1 mps 754 mmHg 95%
    16:00 -22°C° 0 mm 1 mps 755 mmHg 96%
    17:00 -24°C° 0 mm 1 mps 755 mmHg 97%
    18:00 -24°C° 0 mm 1 mps 755 mmHg 97%
    19:00 -24°C° 0 mm 1 mps 756 mmHg 98%
    20:00 -25°C° 0 mm 1 mps 756 mmHg 98%
    21:00 -25°C° 0 mm 1 mps 756 mmHg 98%
    22:00 -25°C° 0 mm 1 mps 757 mmHg 98%
    23:00 -25°C° 0 mm 1 mps 757 mmHg 97%

    22 January, Wednesday

    Time Temperature Precipitation Wind Pressure Humidity
    00:00 -25°C° 0 mm 1 mps 757 mmHg 97%
    01:00 -25°C° 0 mm 1 mps 757 mmHg 97%
    02:00 -25°C° 0 mm 1 mps 757 mmHg 97%
    03:00 -25°C° 0 mm 1 mps 756 mmHg 97%
    04:00 -28°C° 0 mm 2 mps 756 mmHg 97%
    05:00 -28°C° 0 mm 2 mps 756 mmHg 98%
    06:00 -28°C° 0 mm 2 mps 756 mmHg 98%
    07:00 -28°C° 0 mm 2 mps 756 mmHg 98%
    08:00 -28°C° 0 mm 2 mps 756 mmHg 98%
    09:00 -26°C° 0 mm 2 mps 755 mmHg 95%
    10:00 -25°C° 0 mm 2 mps 755 mmHg 92%
    11:00 -24°C° 0 mm 3 mps 754 mmHg 89%
    12:00 -23°C° 0 mm 3 mps 753 mmHg 90%
    13:00 -23°C° 0 mm 3 mps 753 mmHg 91%
    14:00 -22°C° 0 mm 3 mps 752 mmHg 92%
    15:00 -22°C° 0.1 mm 3 mps 752 mmHg 93%
    16:00 -22°C° 0.1 mm 3 mps 752 mmHg 94%
    17:00 -21°C° 0.1 mm 3 mps 751 mmHg 95%
    18:00 -21°C° 0 mm 3 mps 751 mmHg 95%
    19:00 -18°C° 0 mm 2 mps 750 mmHg 95%
    20:00 -18°C° 0 mm 2 mps 750 mmHg 95%
    21:00 -18°C° 0 mm 3 mps 750 mmHg 95%
    22:00 -16°C° 0 mm 3 mps 750 mmHg 94%
    23:00 -15°C° 0 mm 3 mps 749 mmHg 94%

    23 January, Thursday

    Time Temperature Precipitation Wind Pressure Humidity
    00:00 -15°C° 0 mm 3 mps 749 mmHg 93%
    01:00 -14°C° 0 mm 3 mps 749 mmHg 93%
    02:00 -14°C° 0 mm 3 mps 749 mmHg 93%
    03:00 -13°C° 0 mm 3 mps 749 mmHg 93%
    04:00 -13°C° 0 mm 3 mps 748 mmHg 92%
    05:00 -12°C° 0 mm 3 mps 748 mmHg 92%
    06:00 -12°C° 0 mm 4 mps 748 mmHg 92%
    07:00 -12°C° 0 mm 4 mps 747 mmHg 91%
    08:00 -11°C° 0 mm 4 mps 747 mmHg 91%
    09:00 -11°C° 0.1 mm 4 mps 747 mmHg 91%
    10:00 -10°C° 0.1 mm 4 mps 747 mmHg 91%
    11:00 -10°C° 0.1 mm 5 mps 746 mmHg 92%
    12:00 -10°C° 0.2 mm 5 mps 746 mmHg 91%
    13:00 -8°C° 0.2 mm 5 mps 746 mmHg 91%
    14:00 -8°C° 0.2 mm 5 mps 745 mmHg 91%
    15:00 -8°C° 0.1 mm 5 mps 745 mmHg 91%
    16:00 -8°C° 0.1 mm 5 mps 744 mmHg 91%
    17:00 -8°C° 0.1 mm 5 mps 744 mmHg 91%
    18:00 -8°C° 0.1 mm 5 mps 743 mmHg 92%
    19:00 -7°C° 0.1 mm 5 mps 742 mmHg 92%
    20:00 -7°C° 0.1 mm 5 mps 742 mmHg 93%
    21:00 -6°C° 0.4 mm 5 mps 741 mmHg 93%
    22:00 -6°C° 0.4 mm 5 mps 740 mmHg 94%
    23:00 -5°C° 0.4 mm 5 mps 740 mmHg 94%
    Show more